Vertical_Velocity
-1 0 -1 -1 1 0 -1 -1 -2 -2 0 0 1 5 -1 1 -1 -0 1 0 1 -0 -0 -1 -0 -2 -1 -2 -2 -0 -0 0 -1 -1 -0 0 0 0 -1 -0 -0 -2 -1
-1 1 -3 -1 -0 2 -1 -2 2 0 1 3 4 0 1 4 -2 -1 -1 -2 2 -1 -0 -3 -1 1 -2 -1 -1 -1 -0 -1 -0 -1 -2 -2 -0 1 -0 -1 -1 2 1
0 5 1 -1 -0 0 1 1 -0 2 0 1 -0 4 2 1 0 -1 -1 1 -2 -1 3 3 3 0 0 0 -2 -1 -2 -1 -0 0 0 -1 -2 -0 0 0 0 0 0
12 3 5 -0 1 -2 -1 -0 -2 -2 -0 1 -1 1 3 1 -1 -1 -1 1 -1 -2 -1 4 3 2 2 -1 1 0 0 -0 -1 -0 -1 1 -1 -1 0 -0 -1 2 1
9 11 -1 1 -4 1 -1 0 -0 -2 1 -1 -1 -1 -4 -2 -2 -1 -1 -1 -1 -1 -0 -1 -2 2 -0 -1 -0 -0 -2 -2 -2 -1 0 -0 1 -1 -2 -3 -2 -3 -3
-2 -0 -5 4 1 1 -2 -1 3 0 1 2 2 2 -0 -0 1 0 1 2 -0 -4 -3 0 -1 1 -1 -1 0 1 1 -0 3 1 -0 0 0 -2 1 0 -0 -2 -4
1 -3 -1 -9 2 -2 -5 -3 0 2 -2 1 -0 0 -1 -3 3 1 1 1 -1 0 -0 -1 0 -5 -1 0 2 1 -1 -0 -3 1 -1 -1 1 0 -0 0 0 -1 -1
1 2 2 0 -3 4 8 4 2 0 -4 -0 -1 -2 2 -7 -5 0 -0 4 3 0 0 -1 -0 -2 0 0 1 -0 -1 -1 -1 0 2 -3 3 0 0 2 -1 2 1
-3 -1 2 -3 -8 -6 4 0 0 2 -2 -1 -3 -1 0 3 4 11 -2 0 -3 4 -1 -1 1 -2 1 1 1 -0 -2 -0 0 1 2 3 -3 -4 -3 2 -4 6 7
0 1 4 2 -1 0 -3 2 -4 4 15 8 -1 2 4 3 5 4 2 -1 3 8 2 3 2 -1 6 4 -2 3 2 -0 -1 1 0 2 4 2 -2 -0 -2 0 -0
2 0 1 3 2 -1 -4 1 -2 -2 -6 -9 -3 1 5 8 4 4 1 1 4 9 4 3 -0 -3 3 3 -1 -1 1 2 -2 -1 -3 -3 -3 -0 -1 -1 0 2 -1
1 -3 -3 -2 -1 1 4 -2 -1 -1 -1 -1 -4 -1 2 2 0 -3 2 9 3 4 2 2 -1 -0 2 -0 -1 -1 -1 -0 2 1 1 1 1 -3 -2 -2 -5 -3 -1
-4 -2 -1 0 -2 -2 -2 -3 -2 2 -3 1 -3 4 3 1 -5 -2 1 -4 2 -3 0 0 1 1 1 2 4 2 1 1 -1 3 2 -0 1 1 0 -2 -2 -4 -1
0 -2 -4 -2 -2 -2 -4 0 0 -3 -5 -3 -3 -2 -2 -3 -1 1 -5 -3 -9 -11 -4 -3 -1 -1 1 -0 -2 -0 -3 -4 -1 1 2 0 -2 -0 0 -1 0 -5 3
4 -1 -2 -2 -1 -2 -1 -4 -0 2 0 0 0 0 2 3 1 -4 -0 -2 2 -1 1 -0 -5 -3 -4 -0 1 1 1 -1 -1 0 0 -1 -1 0 -2 -3 -2 -1 1
1 -3 -6 -4 -3 -3 -3 -3 -1 0 -2 -0 -0 2 0 -1 -0 -0 -0 -1 -0 -1 -1 2 -2 -1 1 -2 -3 -3 -2 0 -1 -1 -1 -1 0 -1 1 -0 -3 -3 -4
-6 -4 -4 -2 -3 -1 -0 -2 -1 -3 -3 -1 -2 -2 -1 0 -1 -3 -0 -2 -0 2 -1 -1 2 -1 0 -1 3 -4 3 -5 -4 -5 0 0 1 -1 -3 -1 -0 -4 -1
-2 -1 -1 -2 -2 -3 -2 -1 -2 -1 -1 -1 -0 -2 -1 -1 -0 0 0 -4 -2 0 -2 0 3 2 0 1 1 1 2 1 -1 -3 2 -4 -3 -1 0 -2 -2 -2 -3
-3 -2 -2 -2 -1 -1 -1 -1 -1 -1 1 2 -0 -3 -3 -2 -2 -2 -0 -0 -2 -2 -1 -2 -0 -1 -2 -3 -0 2 -1 1 2 -4 -2 0 -2 -4 0 -3 0 1 -3
1 1 -0 1 -1 -1 0 -1 -1 -1 -3 -2 -1 -1 2 3 2 0 0 1 2 2 1 -0 -1 -1 -1 -4 -3 -2 1 -1 1 -1 1 -0 -1 -4 -1 -4 -2 -2 0
-2 4 2 2 -0 2 3 1 -1 1 -0 1 1 -0 0 -4 -5 -2 -3 -2 -1 -2 -3 -3 -3 -1 -1 -1 -1 -1 -1 -3 1 0 0 -2 -2 1 2 -0 -1 -4 -4
0 0 3 2 0 0 1 2 -1 -1 -1 -2 -0 -1 -1 -1 1 -0 -2 -2 -2 -3 -3 -2 -4 -5 -4 -7 -8 -6 -3 -4 -6 -8 -8 -7 -7 -3 -3 1 3 1 -1
-2 -1 2 1 2 -3 -0 1 -3 -1 2 0 -2 -2 -1 -1 -2 -1 -2 -3 -4 -5 -6 -5 -5 -7 -8 -8 -8 -9 -10 -8 -6 -2 -2 -4 -7 -10 -11 -7 -3 5 2
1 -1 1 1 1 1 1 -1 -1 0 -1 -1 -1 -3 -3 -4 -3 -3 -4 -5 -4 -3 -4 -4 -8 -8 -8 -7 -7 -13 -17 -17 -17 -17 -18 -13 -7 0 -4 -0 -1 -2 -4
-2 -0 3 3 2 1 1 -1 -2 1 -1 -0 -1 -1 -2 -2 -2 -2 -3 -3 -2 -2 -4 -5 -7 -1 -6 -5 -6 -14 -14 -11 -10 -9 -8 -6 -2 -3 -10 -18 -12 -13 -10
-1 -1 1 1 -0 -2 -1 -0 0 3 2 1 0 0 1 -1 -2 -1 -2 -2 -2 -3 -7 -6 -7 -9 -9 -19 -19 -8 -1 -4 -5 -3 -11 -8 -5 -1 -1 -2 -0 -6 -2
Height
5926 5929 5932 5934 5937 5939 5941 5942 5942 5943 5944 5946 5948 5949 5951 5952 5953 5954 5956 5956 5957 5958 5958 5959 5960 5961 5961 5962 5962 5962 5963 5962 5963 5965 5964 5965 5965 5965 5965 5963 5963 5961 5960
5922 5924 5925 5928 5932 5935 5937 5938 5939 5941 5942 5943 5945 5946 5948 5949 5951 5952 5953 5954 5955 5956 5957 5958 5959 5960 5961 5961 5961 5962 5961 5961 5961 5962 5962 5962 5963 5963 5962 5961 5960 5959 5957
5916 5920 5921 5923 5927 5930 5933 5934 5936 5937 5939 5940 5941 5943 5944 5946 5947 5949 5951 5951 5952 5953 5955 5956 5957 5958 5958 5959 5960 5960 5960 5959 5960 5960 5959 5959 5959 5960 5960 5960 5958 5957 5956
5908 5911 5915 5916 5920 5923 5926 5929 5930 5933 5935 5936 5938 5939 5940 5942 5944 5946 5948 5949 5950 5951 5952 5954 5954 5955 5956 5957 5957 5958 5958 5957 5958 5958 5957 5957 5957 5958 5958 5957 5956 5956 5954
5898 5902 5906 5910 5913 5915 5919 5924 5926 5928 5930 5932 5933 5935 5936 5938 5939 5941 5944 5945 5946 5947 5948 5949 5951 5951 5951 5952 5953 5954 5955 5955 5955 5955 5955 5955 5955 5954 5954 5954 5953 5951 5950
5894 5896 5900 5900 5904 5907 5912 5918 5920 5922 5925 5927 5928 5929 5931 5932 5933 5935 5939 5941 5942 5943 5944 5946 5947 5947 5947 5947 5948 5949 5951 5952 5952 5952 5952 5951 5952 5952 5951 5950 5950 5949 5947
5889 5891 5893 5895 5897 5901 5904 5908 5911 5914 5916 5919 5921 5922 5924 5926 5927 5929 5932 5934 5936 5937 5938 5939 5941 5943 5943 5944 5945 5946 5946 5946 5947 5948 5948 5948 5949 5949 5948 5947 5946 5945 5944
5885 5887 5889 5890 5893 5895 5898 5901 5902 5905 5908 5910 5912 5914 5914 5914 5920 5923 5925 5927 5929 5930 5932 5934 5935 5936 5939 5940 5941 5941 5941 5941 5941 5942 5944 5944 5944 5943 5943 5944 5943 5942 5941
5880 5881 5883 5886 5889 5892 5893 5894 5891 5894 5899 5902 5903 5905 5907 5912 5915 5916 5917 5921 5922 5923 5926 5927 5929 5929 5932 5934 5934 5934 5935 5935 5936 5937 5938 5938 5937 5936 5935 5937 5936 5937 5937
5876 5878 5880 5882 5883 5886 5886 5886 5888 5887 5891 5894 5896 5898 5901 5903 5906 5908 5909 5910 5911 5912 5916 5918 5920 5922 5923 5924 5927 5928 5928 5928 5929 5929 5930 5931 5930 5930 5928 5928 5928 5929 5929
5871 5873 5875 5876 5878 5879 5880 5881 5881 5882 5884 5884 5888 5889 5891 5894 5897 5899 5900 5901 5902 5903 5904 5906 5909 5911 5913 5914 5917 5918 5919 5919 5919 5922 5923 5922 5922 5921 5919 5919 5919 5919 5920
5864 5866 5868 5870 5871 5873 5875 5876 5875 5876 5876 5877 5879 5880 5882 5884 5886 5888 5891 5892 5893 5894 5895 5896 5897 5901 5902 5904 5905 5907 5908 5909 5909 5911 5913 5913 5913 5911 5911 5910 5909 5908 5908
5856 5857 5860 5862 5864 5866 5867 5868 5868 5868 5869 5871 5872 5874 5874 5876 5876 5880 5881 5883 5883 5884 5886 5887 5888 5889 5892 5892 5893 5895 5897 5899 5898 5900 5902 5902 5902 5901 5900 5899 5898 5897 5899
5844 5847 5849 5851 5853 5856 5859 5859 5860 5860 5860 5860 5862 5864 5866 5868 5869 5869 5871 5872 5875 5878 5879 5879 5879 5879 5880 5882 5882 5883 5884 5886 5887 5887 5889 5890 5891 5890 5891 5889 5889 5887 5888
5831 5833 5835 5838 5840 5842 5844 5847 5849 5850 5851 5852 5854 5855 5856 5857 5859 5859 5860 5861 5862 5864 5867 5868 5868 5869 5870 5871 5871 5870 5871 5872 5874 5874 5875 5876 5877 5878 5878 5877 5877 5876 5876
5816 5819 5823 5825 5826 5828 5829 5832 5834 5837 5839 5841 5841 5842 5844 5845 5846 5847 5848 5849 5851 5852 5853 5854 5855 5855 5856 5856 5859 5858 5856 5858 5857 5858 5859 5859 5861 5862 5862 5863 5862 5862 5863
5803 5805 5808 5810 5811 5813 5814 5816 5818 5821 5823 5825 5826 5828 5829 5831 5831 5832 5833 5835 5836 5838 5839 5840 5840 5840 5841 5842 5842 5843 5841 5841 5842 5841 5842 5842 5843 5845 5846 5847 5847 5847 5848
5787 5789 5791 5793 5796 5797 5799 5800 5802 5804 5806 5809 5811 5812 5814 5814 5815 5817 5818 5819 5819 5820 5821 5822 5823 5824 5824 5825 5825 5825 5825 5824 5825 5825 5825 5824 5825 5826 5827 5828 5829 5830 5832
5772 5774 5776 5777 5779 5781 5783 5785 5786 5789 5790 5792 5793 5794 5796 5798 5799 5800 5800 5800 5801 5802 5803 5803 5804 5804 5804 5805 5805 5805 5805 5805 5804 5804 5804 5804 5805 5805 5807 5807 5809 5810 5812
5756 5758 5761 5763 5765 5766 5767 5769 5770 5772 5773 5775 5776 5778 5779 5780 5781 5782 5782 5783 5783 5783 5783 5783 5782 5782 5782 5783 5783 5783 5783 5783 5783 5782 5781 5781 5782 5782 5783 5785 5785 5786 5789
5740 5743 5745 5747 5749 5751 5752 5754 5756 5757 5758 5759 5760 5761 5762 5762 5763 5763 5764 5764 5764 5764 5763 5763 5762 5762 5760 5760 5760 5760 5760 5760 5758 5758 5757 5757 5757 5757 5758 5759 5760 5761 5763
5727 5728 5730 5732 5734 5735 5737 5738 5740 5741 5742 5743 5744 5745 5746 5746 5746 5746 5745 5745 5744 5743 5742 5741 5739 5738 5737 5735 5734 5733 5732 5732 5731 5730 5731 5730 5731 5730 5731 5733 5734 5734 5735
5713 5715 5716 5718 5720 5721 5722 5723 5724 5725 5726 5727 5728 5729 5729 5729 5729 5728 5728 5727 5725 5724 5722 5720 5718 5715 5713 5710 5708 5705 5703 5703 5702 5700 5700 5700 5700 5701 5702 5703 5704 5705 5706
5697 5700 5701 5702 5703 5705 5706 5708 5709 5710 5711 5711 5711 5711 5711 5710 5710 5709 5708 5707 5705 5703 5700 5697 5694 5691 5688 5685 5681 5677 5675 5673 5670 5667 5663 5664 5665 5666 5665 5665 5667 5670 5672
5680 5682 5684 5686 5688 5689 5691 5692 5693 5694 5694 5694 5694 5694 5693 5693 5691 5690 5688 5687 5685 5682 5678 5675 5671 5667 5661 5656 5651 5647 5644 5639 5633 5627 5623 5621 5622 5623 5624 5624 5626 5627 5631
5663 5666 5669 5671 5672 5673 5675 5676 5677 5678 5678 5678 5678 5677 5676 5675 5673 5671 5669 5667 5664 5661 5658 5653 5648 5642 5635 5629 5624 5616 5609 5601 5594 5588 5584 5583 5581 5580 5577 5576 5576 5576 5581